Perry, IA

7:11 PM CDT on September 20, 2017 (GMT -0500)
Perry Municipal

Weather History for KPRO - October, 2013

Change the Weather History Date:

Tuesday, October 8, 2013

  Actual Average Record
Temperature  
Mean Temperature 62 °F -  
Max Temperature 78 °F 66 °F 91 °F (2010)
Min Temperature 45 °F 39 °F 24 °F (1976)
Degree Days  
Heating Degree Days 4    
Growing Degree Days 12 (Base 50)    
Moisture  
Dew Point 41 °F    
Average Humidity 54    
Maximum Humidity 84    
Minimum Humidity 20    
Precipitation  
Precipitation 0.00 in - - ()
Sea Level Pressure  
Sea Level Pressure 30.01 in    
Wind  
Wind Speed 9 mph (South)    
Max Wind Speed 24 mph    
Max Gust Speed 32 mph    
Visibility 10 miles    
Events      
Averages and records for this station are not official NWS values.
T = Trace of Precipitation, MM = Missing Value Source: NWS Daily Summary

Daily Weather History Graph

Daily Weather History Graph

Search for Another Location

Airport or City:

Trip Planner

Search our weather history database for the weather conditions in past years. The results will help you decide how hot, cold, wet, or windy it might be!

Date:

Astronomy

Oct. 08, 2013 Rise Set
Actual Time 7:21 AM CDT 6:46 PM CDT
Civil Twilight 6:53 AM CDT 7:13 PM CDT
Nautical Twilight 6:21 AM CDT 7:46 PM CDT
Astronomical Twilight 5:48 AM CDT 8:18 PM CDT
Moon 11:19 AM CDT (10/8) 9:19 PM CDT (10/8)
Length of Visible Light 12h 20m
Length of Day
11h 24m
Waxing Crescent, 16% of the Moon is Illuminated
Oct 8
Waxing Crescent
Oct 11
First Quarter
Oct 18
Full
Oct 26
Last Quarter
Nov 3
New

Hourly Weather History & Observations

Time (CDT) Temp. Windchill Dew Point Humidity Pressure Visibility Wind Dir Wind Speed Gust Speed Precip Events Conditions
12:15 AM 45.7 °F 43.4 °F 41.0 °F 84% 30.03 in 10.0 mi SSE 4.6 mph - N/A   Clear
12:35 AM 46.4 °F 44.3 °F 41.0 °F 81% 30.03 in 10.0 mi South 4.6 mph - N/A   Clear
1:15 AM 48.2 °F - 41.2 °F 77% 30.03 in 10.0 mi South 6.9 mph - N/A   Clear
1:35 AM 48.2 °F - 41.2 °F 77% 30.03 in 10.0 mi South 6.9 mph - N/A   Clear
1:55 AM 47.7 °F - 41.2 °F 78% 30.03 in 10.0 mi South 6.9 mph - N/A   Clear
2:15 AM 47.8 °F - 41.2 °F 78% 30.03 in 10.0 mi South 6.9 mph - N/A   Clear
2:35 AM 47.3 °F - 41.0 °F 79% 30.03 in 10.0 mi SSE 5.8 mph - N/A   Clear
2:55 AM 46.8 °F - 41.0 °F 80% 30.03 in 10.0 mi South 5.8 mph - N/A   Clear
3:15 AM 46.6 °F - 41.0 °F 81% 30.03 in 10.0 mi South 6.9 mph - N/A   Clear
3:35 AM 47.1 °F - 41.2 °F 80% 30.03 in 10.0 mi South 5.8 mph - N/A   Clear
3:55 AM 47.5 °F - 41.4 °F 79% 30.03 in 10.0 mi South 6.9 mph - N/A   Clear
4:15 AM 47.5 °F - 41.4 °F 79% 30.03 in 10.0 mi South 6.9 mph - N/A   Clear
4:35 AM 47.1 °F - 41.4 °F 80% 30.03 in 10.0 mi South 6.9 mph - N/A   Clear
4:55 AM 46.8 °F - 41.2 °F 81% 30.03 in 10.0 mi South 6.9 mph - N/A   Clear
5:15 AM 46.4 °F 43.5 °F 41.2 °F 82% 30.03 in 10.0 mi South 5.8 mph - N/A   Clear
5:35 AM 46.9 °F - 41.5 °F 81% 30.03 in 10.0 mi South 6.9 mph - N/A   Clear
5:55 AM 46.8 °F - 41.4 °F 81% 30.03 in 10.0 mi South 8.1 mph - N/A   Clear
6:15 AM 46.8 °F - 41.4 °F 81% 30.03 in 10.0 mi South 6.9 mph - N/A   Clear
6:35 AM 45.9 °F 42.9 °F 41.0 °F 83% 30.04 in 10.0 mi SSE 5.8 mph - N/A   Clear
6:55 AM 46.0 °F 42.5 °F 41.2 °F 83% 30.04 in 10.0 mi South 6.9 mph - N/A   Clear
7:15 AM 46.6 °F - 41.4 °F 82% 30.04 in 10.0 mi South 8.1 mph - N/A   Clear
7:35 AM 46.8 °F - 41.4 °F 81% 30.04 in 10.0 mi South 6.9 mph - N/A   Clear
7:55 AM 47.1 °F - 41.9 °F 82% 30.04 in 10.0 mi South 6.9 mph - N/A   Clear
8:15 AM 49.6 °F - 42.4 °F 76% 30.04 in 10.0 mi South 6.9 mph - N/A   Clear
8:35 AM 50.9 °F - 42.8 °F 74% 30.04 in 10.0 mi South 8.1 mph - N/A   Clear
8:55 AM 52.9 °F - 44.1 °F 72% 30.04 in 10.0 mi South 6.9 mph - N/A   Clear
9:15 AM 56.1 °F - 43.7 °F 63% 30.04 in 10.0 mi South 11.5 mph - N/A   Clear
9:35 AM 58.8 °F - 43.3 °F 56% 30.04 in 10.0 mi South 8.1 mph - N/A   Clear
9:55 AM 62.2 °F - 42.8 °F 49% 30.04 in 10.0 mi South 10.4 mph - N/A   Clear
10:15 AM 64.9 °F - 41.2 °F 42% 30.04 in 10.0 mi SSW 12.7 mph 18.4 mph N/A   Clear
10:35 AM 67.5 °F - 40.1 °F 37% 30.03 in 10.0 mi South 15.0 mph 20.7 mph N/A   Clear
10:55 AM 69.1 °F - 38.5 °F 33% 30.02 in 10.0 mi South 19.6 mph 24.2 mph N/A   Clear
11:15 AM 70.2 °F - 37.9 °F 31% 30.02 in 10.0 mi SSW 16.1 mph 26.5 mph N/A   Clear
11:35 AM 71.1 °F - 37.4 °F 29% 30.02 in 10.0 mi South 16.1 mph 27.6 mph N/A   Clear
11:55 AM 73.0 °F - 37.4 °F 27% 30.01 in 10.0 mi South 16.1 mph 24.2 mph N/A   Clear
12:15 PM 73.9 °F - 36.7 °F 26% 30.01 in 10.0 mi South 15.0 mph 26.5 mph N/A   Clear
12:35 PM 74.7 °F - 35.1 °F 24% 30.01 in 10.0 mi SSW 16.1 mph 29.9 mph N/A   Clear
12:55 PM 75.7 °F - 35.6 °F 23% 30.00 in 10.0 mi SSW 18.4 mph 28.8 mph N/A   Clear
1:15 PM 76.3 °F - 35.4 °F 23% 29.99 in 10.0 mi South 17.3 mph 26.5 mph N/A   Clear
1:35 PM 76.5 °F - 34.3 °F 22% 29.99 in 10.0 mi SSW 20.7 mph 29.9 mph N/A   Clear
1:55 PM 77.4 °F - 33.6 °F 20% 29.97 in 10.0 mi SSW 24.2 mph 32.2 mph N/A   Clear
2:15 PM 77.9 °F - 34.0 °F 20% 29.97 in 10.0 mi SSW 23.0 mph 31.1 mph N/A   Clear
2:35 PM 78.1 °F - 34.7 °F 21% 29.97 in 10.0 mi SSW 18.4 mph 28.8 mph N/A   Clear
2:55 PM 77.9 °F - 34.3 °F 21% 29.96 in 10.0 mi SSW 23.0 mph 31.1 mph N/A   Clear
3:15 PM 78.3 °F - 34.9 °F 21% 29.96 in 10.0 mi South 17.3 mph 26.5 mph N/A   Clear
3:35 PM 78.1 °F - 34.9 °F 21% 29.96 in 10.0 mi SSW 19.6 mph 27.6 mph N/A   Clear
3:55 PM 77.9 °F - 35.4 °F 21% 29.96 in 10.0 mi South 18.4 mph 28.8 mph N/A   Clear
4:15 PM 77.9 °F - 36.1 °F 22% 29.96 in 10.0 mi South 19.6 mph 24.2 mph N/A   Clear
4:35 PM 77.5 °F - 36.1 °F 22% 29.96 in 10.0 mi South 19.6 mph 25.3 mph N/A   Clear
4:55 PM 77.0 °F - 36.9 °F 23% 29.96 in 10.0 mi South 17.3 mph 24.2 mph N/A   Clear
5:15 PM 76.3 °F - 37.8 °F 25% 29.96 in 10.0 mi South 17.3 mph 24.2 mph N/A   Clear
5:35 PM 75.2 °F - 38.1 °F 26% 29.96 in 10.0 mi South 16.1 mph 24.2 mph N/A   Clear
5:55 PM 73.8 °F - 37.9 °F 27% 29.96 in 10.0 mi South 17.3 mph 23.0 mph N/A   Clear
6:15 PM 70.9 °F - 40.6 °F 33% 29.96 in 10.0 mi South 9.2 mph 16.1 mph N/A   Clear
6:35 PM 68.5 °F - 42.3 °F 38% 29.96 in 10.0 mi South 8.1 mph - N/A   Clear
6:55 PM 67.3 °F - 42.8 °F 41% 29.97 in 10.0 mi South 10.4 mph - N/A   Clear
7:15 PM 66.2 °F - 43.0 °F 43% 29.97 in 10.0 mi South 9.2 mph - N/A   Clear
7:35 PM 65.3 °F - 43.2 °F 45% 29.97 in 10.0 mi SSE 8.1 mph - N/A   Clear
7:55 PM 62.6 °F - 43.9 °F 50% 29.98 in 10.0 mi SSE 4.6 mph - N/A   Clear
8:15 PM 61.0 °F - 44.6 °F 55% 29.99 in 10.0 mi South 5.8 mph - N/A   Clear
8:35 PM 60.1 °F - 44.8 °F 57% 29.99 in 10.0 mi SSE 6.9 mph - N/A   Clear
8:55 PM 58.8 °F - 45.0 °F 60% 29.99 in 10.0 mi SSE 6.9 mph - N/A   Clear
9:15 PM 59.2 °F - 45.3 °F 60% 29.99 in 10.0 mi SSE 9.2 mph - N/A   Clear
9:35 PM 59.2 °F - 45.1 °F 60% 29.99 in 10.0 mi South 8.1 mph - N/A   Clear
9:55 PM 58.1 °F - 45.0 °F 62% 30.00 in 10.0 mi SSE 6.9 mph - N/A   Clear
10:15 PM 57.4 °F - 45.0 °F 63% 29.99 in 10.0 mi SSE 8.1 mph - N/A   Clear
10:35 PM 57.6 °F - 44.8 °F 62% 30.00 in 10.0 mi SSE 9.2 mph - N/A   Clear
10:55 PM 56.8 °F - 44.8 °F 64% 30.01 in 10.0 mi SSE 6.9 mph - N/A   Clear
11:15 PM 54.7 °F - 44.8 °F 69% 30.01 in 10.0 mi SSE 6.9 mph - N/A   Clear
11:35 PM 53.6 °F - 44.6 °F 72% 30.01 in 10.0 mi SE 5.8 mph - N/A   Clear
11:55 PM 52.9 °F - 44.6 °F 73% 30.01 in 10.0 mi SSE 6.9 mph - N/A   Clear